User: anonymous   Login
Location: Kershaw
(34.5481°N, 80.5823°W)
Time: 15:29:54
(UTC+00:00)
Language:

Tiros 1 despin weight - Orbit

View from above orbital plane
View from above orbital plane
View from above satellite
View from above satellite

Ground track
Ground track

The orbit data is extracted from the following two-line orbital elements,

1 00115U 60002D   22266.66502896  .00001463  00000-0  19583-3 0  9998
2 00115  48.1658 249.6427 0034734 300.4914  59.2571 14.84632112314815
Epoch (UTC): 23 September 2022 15:57:38
Eccentricity: 0.0034734
inclination: 48.1658°
perigee height: 590 km
apogee height: 639 km
right ascension of ascending node: 249.6427°
argument of perigee: 300.4914°
revolutions per day: 14.84632112
mean anomaly at epoch: 59.2571°
orbit number at epoch: 31481

The dashed part of the orbit path shows where the satellite is in the earth's shadow,  

DLR